[[{"header":{"parameterUnit":"m.s-1","parameterCategory":1,"la1":30.2991,"la2":30.254,"lo1":-89.0895,"lo2":-89.0444,"dy":0.0017,"dx":0.0017,"nx":28,"ny":28,"refTime":"2026-02-08T03:00:00:Z","depth":0,"parameterNumber":2,"parameterNumberName":"U-component_of_WINDS"},"data":[0,0,0,0,0,0,0,0,0,0,0,0,0,0,0,0,0,0,0,0,0,0,0,0,0,0,0,0,0,0,0,0,0,0,0,0,0,0,0,0,0,0,0,0,0,0,0,0,0,0,0,0,0,0,0,0,0,0,-2.2515,-2.2515,0,-2.2524,-2.2524,-2.2524,-2.2414,-2.2411,-2.2408,-2.2405,-2.2416,-2.2419,-2.2422,0,0,0,0,0,0,0,0,0,0,0,0,0,-2.2405,-2.2407,-2.2515,-2.2515,-2.2515,-2.2524,-2.2524,-2.2524,-2.2414,-2.2411,-2.2407,-2.2403,-2.2415,-2.2419,-2.2422,0,0,0,0,0,0,0,0,0,0,0,0,0,-2.2437,-2.2408,-2.2515,-2.2461,-2.2456,-2.2523,-2.2524,-2.2524,-2.2415,-2.241,-2.2406,-2.2402,-2.2414,-2.2418,-2.2423,-2.2542,0,0,-2.2437,-2.2439,0,0,0,0,0,0,0,0,-2.2435,-2.2441,-2.2469,-2.2465,-2.246,-2.2463,-2.2489,-2.253,-2.2416,-2.2431,-2.2405,-2.24,-2.2435,-2.2438,-2.245,-2.2543,-2.2543,-2.2438,-2.244,-2.2442,-2.2444,0,0,0,0,0,0,0,-2.2433,-2.244,-2.2518,-2.2469,-2.2464,-2.2437,-2.2437,-2.2496,-2.2458,-2.2429,-2.2421,-2.2424,-2.2432,-2.2445,-2.2449,-2.2543,-2.2437,-2.2442,-2.2444,-2.2446,-2.2736,-2.2741,0,0,0,0,0,0,-2.2438,-2.2439,-2.2518,-2.2518,-2.2436,-2.2443,-2.2443,-2.2466,-2.2457,-2.2452,-2.2428,-2.2419,-2.244,-2.2444,-2.2449,-2.259,-2.2442,-2.2447,-2.2449,-2.2731,-2.2737,-2.2743,0,0,0,0,0,0,-2.2436,-2.2446,-2.2517,-2.2477,-2.2484,-2.245,-2.2477,-2.2469,-2.2482,-2.2456,-2.2449,-2.2448,-2.2436,-2.2442,-2.252,-2.2588,-2.2449,-2.2453,-2.2726,-2.2733,-2.274,-2.2871,0,0,0,0,0,0,-2.2433,-2.2446,-2.2491,-2.2478,-2.2486,-2.2588,-2.2482,-2.2472,-2.249,-2.2479,-2.2474,-2.2468,-2.2433,-2.2514,-2.2525,-2.2592,-2.2457,-2.2719,-2.2729,-2.2738,-2.286,-2.2882,-2.29,0,0,0,0,0,-2.243,-2.2527,-2.2493,-2.2503,-2.2541,-2.2592,-2.2597,-2.2554,-2.2496,-2.2541,-2.2525,-2.2469,-2.2579,-2.2523,-2.2534,-2.2604,-2.2715,-2.2726,-2.2737,-2.2852,-2.2878,-2.29,0,0,0,0,0,0,-2.2549,-2.2524,-2.2487,-2.2583,-2.2591,-2.2574,-2.2629,-2.2583,-2.2607,-2.2595,-2.2541,-2.2541,-2.2628,-2.2623,-2.2561,-2.272,-2.2637,-2.2651,-2.272,-2.2745,-2.2764,-2.2764,-2.2461,0,0,0,0,0,-2.2586,-2.2629,-2.2605,-2.2693,-2.2698,-2.2663,-2.2684,-2.265,-2.2656,-2.2659,-2.2648,-2.2656,-2.2693,-2.2718,-2.275,-2.2858,-2.2857,-2.2912,-2.2932,-2.2949,-2.2962,-2.3021,-2.3046,-2.2779,-2.2779,-2.2779,0,0,-2.2664,-2.2656,-2.2686,-2.2716,-2.2718,-2.2765,-2.2667,-2.272,-2.2754,-2.2667,-2.274,-2.2732,-2.2738,-2.2832,-2.2873,-2.2831,-2.3035,-2.2963,-2.2976,-2.2981,-2.3035,-2.306,-2.3083,-2.2786,-2.2785,-2.2784,0,0,-2.2829,-2.2827,-2.29,-2.2904,-2.2908,-2.2884,-2.2902,-2.2892,-2.2884,-2.2956,-2.2892,-2.2932,-2.2995,-2.3003,-2.3015,-2.3185,-2.3135,-2.3196,-2.3301,-2.3359,-2.338,-2.3399,-2.3461,-2.3484,-2.3209,-2.321,-2.321,0,-2.2926,-2.2993,-2.2943,-2.3002,-2.3018,-2.294,-2.3014,-2.302,-2.3035,-2.3049,-2.3001,-2.308,-2.3078,-2.3174,-2.3215,-2.3227,-2.3247,-2.3198,-2.3381,-2.3399,-2.3416,-2.3475,-2.3498,-2.3217,-2.3216,-2.3215,-2.3215,0,-2.3112,-2.316,-2.3218,-2.3235,-2.3257,-2.3323,-2.3284,-2.3313,-2.3277,-2.3259,-2.3334,-2.3329,-2.336,-2.338,-2.3345,-2.3471,-2.3445,-2.339,-2.3306,-2.345,-2.3504,-2.3526,-2.3228,-2.3225,-2.3223,-2.3221,0,0,-2.3354,-2.3342,-2.3365,-2.3372,-2.337,-2.3407,-2.347,-2.3499,-2.3526,-2.3538,-2.3591,-2.3647,-2.3596,-2.361,-2.3576,-2.3626,-2.3764,-2.3565,-2.3564,-2.3604,-2.3904,-2.3947,-2.3974,-2.373,-2.3734,-2.3737,-2.3905,0,-2.3517,-2.3623,-2.3581,-2.3692,-2.3736,-2.3663,-2.3718,-2.3724,-2.3709,-2.3745,-2.3727,-2.3769,-2.3698,-2.3706,-2.3753,-2.3737,-2.3824,-2.3724,-2.378,-2.3782,-2.3783,-2.4002,-2.4048,-2.4206,-2.3925,-2.3929,-2.3931,0,-2.3721,-2.3743,-2.3858,-2.385,-2.3867,-2.3917,-2.3942,-2.3976,-2.3982,-2.3967,-2.3983,-2.3938,-2.4,-2.3915,-2.4001,-2.3935,-2.3955,-2.3951,-2.3956,-2.3961,-2.3867,-2.4016,-2.4255,-2.428,-2.3964,-2.3962,-2.3959,0,-2.3889,-2.3946,-2.4023,-2.4031,-2.4023,-2.406,-2.4059,-2.406,-2.4081,-2.4102,-2.4115,-2.4144,-2.416,-2.4184,-2.4148,-2.4089,-2.424,-2.4151,-2.4231,-2.4232,-2.4268,-2.4266,-2.4517,-2.4277,-2.4277,-2.4277,-2.4276,0,-2.4077,-2.4151,-2.4098,-2.4146,-2.4227,-2.4177,-2.4259,-2.425,-2.4252,-2.4297,-2.4235,-2.4279,-2.4227,-2.4267,-2.4239,-2.4316,-2.4323,-2.4314,-2.4306,-2.4321,-2.4322,-2.4335,-2.4324,-2.4283,-2.4281,-2.428,-2.4279,0,-2.4278,-2.4246,-2.4325,-2.4311,-2.431,-2.437,-2.4359,-2.4403,-2.4382,-2.4441,-2.4451,-2.4421,-2.4464,-2.443,-2.4472,-2.4453,-2.4556,-2.4531,-2.4554,-2.4548,-2.4631,-2.4624,-2.4899,-2.4934,-2.4671,-2.4673,-2.4675,0,-2.4401,-2.4456,-2.4449,-2.4474,-2.4477,-2.4519,-2.454,-2.4494,-2.4518,-2.4529,-2.4573,-2.461,-2.4638,-2.4711,-2.4693,-2.4725,-2.4702,-2.4796,-2.4707,-2.4721,-2.4707,-2.4705,-2.4711,-2.4815,-2.4819,-2.4821,-2.4823,0,-2.4624,-2.4605,-2.4637,-2.4665,-2.4692,-2.4711,-2.4726,-2.4751,-2.4704,-2.4735,-2.4778,-2.48,-2.4843,-2.4882,-2.4908,-2.4907,-2.4859,-2.4851,-2.4872,-2.4888,-2.4901,-2.4897,-2.4606,-2.4846,-2.4843,-2.4842,-2.484,-2.484,-2.4791,-2.4837,-2.4839,-2.4878,-2.4884,-2.49,-2.4941,-2.4926,-2.4961,-2.4993,-2.4963,-2.5016,-2.5021,-2.5051,-2.5057,-2.5098,-2.5059,-2.5088,-2.5096,-2.5105,-2.5118,-2.4892,-2.5102,-2.5101,-2.5101,-2.51,-2.51,0,-2.5012,-2.501,-2.5046,-2.5068,-2.5099,-2.5049,-2.5063,-2.5092,-2.514,-2.5148,-2.5177,-2.5228,-2.5265,-2.525,-2.5284,-2.532,-2.5299,-2.5331,-2.5329,-2.533,-2.5149,-2.5129,-2.5348,-2.5348,-2.5348,-2.5348,-2.5347,-2.5347,-2.5131,-2.5207,-2.5189,-2.5268,-2.5265,-2.5316,-2.5329,-2.5343,-2.535,-2.541,-2.5441,-2.543,-2.543,-2.5463,-2.5496,-2.549,-2.5507,-2.5547,-2.5535,-2.5367,-2.5342,-2.5319,-2.53,-2.5551,-2.5551,-2.5712,-2.5713,-2.5714]},{"header":{"parameterUnit":"m.s-1","parameterCategory":1,"la1":30.2991,"la2":30.254,"lo1":-89.0895,"lo2":-89.0444,"dy":0.0017,"dx":0.0017,"nx":28,"ny":28,"refTime":"2026-02-08T03:00:00:Z","depth":0,"parameterNumber":3,"parameterNumberName":"V-component_of_WINDS"},"data":[0,0,0,0,0,0,0,0,0,0,0,0,0,0,0,0,0,0,0,0,0,0,0,0,0,0,0,0,0,0,0,0,0,0,0,0,0,0,0,0,0,0,0,0,0,0,0,0,0,0,0,0,0,0,0,0,0,0,-1.4124,-1.4124,0,-1.4185,-1.4185,-1.4186,-1.4205,-1.4204,-1.4204,-1.4204,-1.4265,-1.4266,-1.4268,0,0,0,0,0,0,0,0,0,0,0,0,0,-1.4021,-1.4023,-1.4124,-1.4124,-1.4125,-1.4185,-1.4185,-1.4186,-1.4205,-1.4204,-1.4204,-1.4204,-1.4264,-1.4266,-1.4268,0,0,0,0,0,0,0,0,0,0,0,0,0,-1.4072,-1.4023,-1.4123,-1.4142,-1.4144,-1.4184,-1.4185,-1.4186,-1.4205,-1.4204,-1.4204,-1.4204,-1.4263,-1.4266,-1.4269,-1.4295,0,0,-1.4277,-1.4279,0,0,0,0,0,0,0,0,-1.4069,-1.4076,-1.4138,-1.414,-1.4143,-1.4187,-1.4171,-1.4223,-1.4205,-1.4182,-1.4204,-1.4203,-1.4239,-1.4244,-1.4256,-1.4298,-1.4301,-1.4278,-1.4279,-1.4281,-1.4281,0,0,0,0,0,0,0,-1.4066,-1.4073,-1.4148,-1.4139,-1.4142,-1.4146,-1.4153,-1.4181,-1.4212,-1.4184,-1.4185,-1.4192,-1.424,-1.4253,-1.4258,-1.4301,-1.4278,-1.428,-1.4282,-1.4283,-1.4367,-1.4368,0,0,0,0,0,0,-1.4059,-1.407,-1.4146,-1.415,-1.4104,-1.4148,-1.4156,-1.4173,-1.4212,-1.4217,-1.4193,-1.4193,-1.4249,-1.4254,-1.426,-1.4293,-1.4281,-1.4283,-1.4285,-1.4367,-1.4367,-1.4368,0,0,0,0,0,0,-1.4057,-1.4066,-1.4143,-1.411,-1.4121,-1.415,-1.417,-1.4175,-1.4188,-1.4218,-1.4224,-1.4201,-1.4249,-1.4256,-1.4286,-1.4295,-1.4285,-1.4287,-1.4366,-1.4367,-1.4368,-1.4359,0,0,0,0,0,0,-1.4054,-1.4065,-1.4076,-1.411,-1.4122,-1.4169,-1.417,-1.4176,-1.4193,-1.4194,-1.4227,-1.4232,-1.4249,-1.4282,-1.4289,-1.4299,-1.4289,-1.4365,-1.4366,-1.4367,-1.4359,-1.4359,-1.436,0,0,0,0,0,-1.405,-1.4071,-1.4076,-1.4085,-1.4137,-1.417,-1.4176,-1.4195,-1.4193,-1.4204,-1.4224,-1.4231,-1.4293,-1.4285,-1.4293,-1.4304,-1.4365,-1.4366,-1.4367,-1.4358,-1.4359,-1.436,0,0,0,0,0,0,-1.4036,-1.4076,-1.4082,-1.4115,-1.4139,-1.4173,-1.4187,-1.4196,-1.422,-1.422,-1.4242,-1.4249,-1.4278,-1.4294,-1.4284,-1.4331,-1.4329,-1.4332,-1.4319,-1.4321,-1.4321,-1.4317,-1.4292,0,0,0,0,0,-1.4037,-1.4061,-1.4094,-1.4119,-1.4131,-1.4157,-1.4172,-1.4185,-1.421,-1.422,-1.4242,-1.4266,-1.4291,-1.4307,-1.4331,-1.4361,-1.4368,-1.4372,-1.4373,-1.4374,-1.4376,-1.4392,-1.4394,-1.4372,-1.4372,-1.4372,0,0,-1.4038,-1.4063,-1.4077,-1.4117,-1.4137,-1.4161,-1.4165,-1.4191,-1.4208,-1.4224,-1.4254,-1.4271,-1.4299,-1.4329,-1.4343,-1.4343,-1.4384,-1.4375,-1.4375,-1.4377,-1.4393,-1.4396,-1.4397,-1.4373,-1.4372,-1.4372,0,0,-1.4053,-1.4074,-1.4098,-1.4118,-1.4148,-1.4165,-1.4171,-1.4204,-1.4215,-1.4246,-1.4258,-1.4279,-1.4321,-1.4341,-1.4356,-1.4378,-1.4385,-1.4385,-1.4389,-1.4404,-1.4406,-1.4408,-1.4415,-1.4417,-1.4387,-1.4387,-1.4387,0,-1.4051,-1.4088,-1.4108,-1.4133,-1.415,-1.4166,-1.4189,-1.4207,-1.4244,-1.4255,-1.4254,-1.4307,-1.4327,-1.4362,-1.4367,-1.4379,-1.4386,-1.4381,-1.4404,-1.4406,-1.4408,-1.4415,-1.4418,-1.4387,-1.4387,-1.4387,-1.4387,0,-1.4084,-1.4109,-1.4124,-1.416,-1.4178,-1.4202,-1.4225,-1.4242,-1.4252,-1.4269,-1.4299,-1.4324,-1.4353,-1.4362,-1.4373,-1.4398,-1.4397,-1.44,-1.4399,-1.441,-1.4417,-1.442,-1.4386,-1.4386,-1.4386,-1.4387,0,0,-1.4092,-1.4138,-1.4143,-1.4159,-1.4193,-1.4213,-1.4237,-1.4267,-1.428,-1.4304,-1.4325,-1.436,-1.4363,-1.438,-1.4393,-1.4407,-1.4421,-1.4408,-1.4409,-1.4409,-1.445,-1.4447,-1.445,-1.4427,-1.4427,-1.4428,-1.4448,0,-1.4111,-1.4155,-1.4174,-1.4209,-1.4233,-1.4247,-1.4268,-1.4291,-1.4307,-1.4329,-1.4346,-1.4371,-1.4373,-1.4383,-1.4398,-1.4417,-1.443,-1.4415,-1.4445,-1.4446,-1.4437,-1.4454,-1.4452,-1.4469,-1.445,-1.4451,-1.4451,0,-1.4139,-1.4164,-1.4202,-1.4233,-1.4244,-1.4262,-1.429,-1.4311,-1.4337,-1.4348,-1.4367,-1.4379,-1.4404,-1.44,-1.4435,-1.4424,-1.4438,-1.4449,-1.445,-1.4453,-1.4449,-1.4457,-1.4475,-1.4478,-1.4456,-1.4456,-1.4455,0,-1.4141,-1.4184,-1.4212,-1.4225,-1.4262,-1.4275,-1.4291,-1.4317,-1.4333,-1.4357,-1.4367,-1.4394,-1.4408,-1.4428,-1.4447,-1.4443,-1.4479,-1.4478,-1.4488,-1.4487,-1.4495,-1.4494,-1.4515,-1.4504,-1.4504,-1.4504,-1.4503,0,-1.416,-1.4182,-1.4213,-1.423,-1.4256,-1.4276,-1.4301,-1.4317,-1.434,-1.436,-1.4374,-1.4393,-1.4416,-1.4437,-1.4452,-1.4478,-1.4484,-1.4493,-1.4496,-1.4492,-1.449,-1.45,-1.4499,-1.4504,-1.4504,-1.4504,-1.4504,0,-1.4166,-1.4188,-1.4219,-1.4252,-1.426,-1.4277,-1.4305,-1.4322,-1.4338,-1.4364,-1.4371,-1.4396,-1.4422,-1.4443,-1.4476,-1.4486,-1.4513,-1.4517,-1.4504,-1.4506,-1.4515,-1.4514,-1.4542,-1.4547,-1.4533,-1.4533,-1.4533,0,-1.4177,-1.4195,-1.4229,-1.4244,-1.426,-1.4283,-1.43,-1.4321,-1.4337,-1.4368,-1.4381,-1.4407,-1.443,-1.447,-1.4491,-1.4517,-1.4521,-1.453,-1.4525,-1.452,-1.4521,-1.452,-1.4521,-1.453,-1.453,-1.453,-1.453,0,-1.4194,-1.4203,-1.4227,-1.4254,-1.4274,-1.4296,-1.4319,-1.433,-1.4355,-1.4372,-1.4399,-1.4417,-1.4451,-1.4477,-1.4504,-1.452,-1.4529,-1.4531,-1.4535,-1.453,-1.4522,-1.4526,-1.4505,-1.4531,-1.4531,-1.4531,-1.4531,-1.4531,-1.4202,-1.4218,-1.4245,-1.4271,-1.429,-1.4311,-1.4328,-1.4347,-1.437,-1.4399,-1.441,-1.4437,-1.4462,-1.45,-1.4516,-1.4537,-1.4537,-1.4543,-1.4544,-1.4545,-1.4544,-1.4519,-1.4542,-1.4542,-1.4542,-1.4542,-1.4542,0,-1.4219,-1.4237,-1.4261,-1.4292,-1.4312,-1.4319,-1.4345,-1.4361,-1.4385,-1.4407,-1.4429,-1.4459,-1.4485,-1.4508,-1.4534,-1.4546,-1.4551,-1.4552,-1.4552,-1.4555,-1.4542,-1.4537,-1.4548,-1.4548,-1.4548,-1.4548,-1.4548,-1.4548,-1.4231,-1.4258,-1.4271,-1.4308,-1.4326,-1.4353,-1.4366,-1.4385,-1.4403,-1.4437,-1.4458,-1.4473,-1.4495,-1.4523,-1.4547,-1.4553,-1.4561,-1.4562,-1.4569,-1.4557,-1.4556,-1.4555,-1.4549,-1.4563,-1.4564,-1.4579,-1.458,-1.458]}]]